Regional Weather Roundup
Issued by NWS

Home | Current Version | Previous Version | Text Only | Print | Product List | Glossary On
Versions: 1 2 3 4 5 6 7 8 9 10 11 12 13 14 15 16 17 18 19 20 21 22 23 24 25 26 27 28 29 30 31 32 33 34 35 36 37 38 39 40 41 42 43 44 45 46 47 48 49 50
178
ASUS43 KDTX 162001
RWRMI
MICHIGAN HOURLY REGIONAL WEATHER ROUNDUP
NATIONAL WEATHER SERVICE DETROIT/PONTIAC MI
300 PM EST SAT DEC 16 2017

NOTE: "FAIR" INDICATES FEW OR NO CLOUDS BELOW 12,000 FEET WITH NO
SIGNIFICANT WEATHER AND/OR OBSTRUCTION TO VISIBILITY.

MIZ047>049-052>055-059>063-066>070-074>076-081>083-162100-
SOUTHEAST LOWER MICHIGAN

CITY           SKY/WX    TMP DP  RH WIND       PRES   REMARKS
ADRIAN         MOSUNNY   38  27  64 SW7       29.97R WCI  33
ALMA           CLOUDY    24  21  89 E8        30.02R WCI  15
ANN ARBOR      MOSUNNY   32  26  78 NE7       29.97R WCI  26
BAD AXE        CLOUDY    24  18  78 NE10      30.04S WCI  14
CARO           CLOUDY    25  20  81 N5        30.01R WCI  19
DETROIT CITY   CLOUDY    27  22  81 NE8       30.01R WCI  19
DETROIT        PTSUNNY   32  24  72 NE9       30.00R WCI  24
FLINT          CLOUDY    25  18  74 E9        30.00R WCI  15
GROSSE ILE     PTSUNNY   29  25  85 E10       30.00R WCI  19
HILLSDALE      SUNNY     39  27  60 SW7       29.93R WCI  34
HOWELL         CLOUDY    29  25  86 E7        29.97R WCI  21

CITY           SKY/WX    TMP DP  RH WIND       PRES   REMARKS
JACKSON        PTSUNNY   40  26  57 CALM      29.95R
LAMBERTVILLE   MOSUNNY   39  28  63 W7        29.98R WCI  34
LANSING        CLOUDY    27  22  81 E9        29.99R WCI  18
LAPEER         CLOUDY    25  19  77 E3        30.01R
MASON          CLOUDY    29  22  75 NE7       29.97R WCI  22
MONROE         SUNNY     38  27  64 W3        29.98R
MT. CLEMENS    CLOUDY    27  23  85 N5        30.01R WCI  21
PONTIAC        CLOUDY    25  20  81 NE9       29.98R WCI  15
PORT HOPE        N/A     24  18  77 NE12      30.04R WCI  13
PORT HURON     CLOUDY    25  19  80 N3        30.03R
TRI CITIES     CLOUDY    24  21  88 NE10      30.03R WCI  14
MIDLAND        CLOUDY    24  19  81 E7        30.03S WCI  16
TROY           CLOUDY    28  22  81 NE6       30.02R WCI  21
SAGINAW HB     CLOUDY    25  21  86 NE8       30.02S WCI  16
$$
MIZ043>046-050>051-056>058-064>065-071>073-077>080-162100-
SOUTHWEST LOWER MICHIGAN

CITY           SKY/WX    TMP DP  RH WIND       PRES   REMARKS
BATTLE CREEK   MOSUNNY   37  28  70 S3        29.94R
BENTON HARBOR  SUNNY     41  25  53 SW7       29.92S
BIG RAPIDS     CLOUDY    23  18  79 E8        29.98R WCI  14
COLDWATER      SUNNY     38  26  63 SW5       29.95R WCI  34
HOLLAND        CLOUDY    30  24  78 E9        29.95R WCI  22
GRAND RAPIDS   CLOUDY    26  22  84 E15       29.97R WCI  14
IONIA          CLOUDY    25  20  81 E10       29.98R WCI  15
KALAMAZOO      SUNNY     38  26  62 S6        29.94R WCI  33
LUDINGTON      CLOUDY    26  19  73 E10       29.99R WCI  16
MARSHALL       MOSUNNY   38  26  62 CALM      29.94R
MOUNT PLEASANT CLOUDY    25  18  74 E7        30.01R WCI  17
MUSKEGON       PTSUNNY   29  21  72 E13       29.96R WCI  19
SOUTH HAVEN    SUNNY     42  29  60 S6        29.92S
$$
MIZ016>042-162100-
NORTHERN LOWER MICHIGAN

CITY           SKY/WX    TMP DP  RH WIND       PRES   REMARKS
ALPENA         CLOUDY    14   8  77 N7        30.10R WCI   4
BEAVER ISLAND  FLURRIES  15  10  83 E8        30.08R WCI   4
BELLAIRE       CLOUDY    20  13  76 NE7       30.06R WCI  11
CADILLAC       CLOUDY    21  16  79 E7        29.96R WCI  13
CHARLEVOIX     CLOUDY    16  10  77 E7        30.10R WCI   6
FRANKFORT      CLOUDY    27  17  65 E7        30.01R WCI  19
GAYLORD        CLOUDY    14   8  77 NE7       30.00R WCI   4
GRAYLING       CLOUDY    18  11  74 NE7       30.01S WCI   8
HARBOR SPRINGS CLOUDY    13   6  76 E9        30.08R WCI   0
HOUGHTON LAKE  CLOUDY    22  12  65 E10       29.99F WCI  11
MANISTEE       CLOUDY    27  19  72 E9        30.00R WCI  18
OSCODA         MOSUNNY   20  12  71 NE10      30.06S WCI   9
PELLSTON       CLOUDY    12   7  80 E9        30.10R WCI   0
ROGERS CITY    LGT SNOW  13   9  83 N3        30.10S
TRAVERSE CITY  CLOUDY    23  13  65 E7        30.02R WCI  15
$$
MIZ007>008-015-162100-
EASTERN UPPER MICHIGAN

CITY           SKY/WX    TMP DP  RH WIND       PRES   REMARKS
KINROSS        CLOUDY     2  -9  60 NE8       30.10R WCI -12
MACKINAC ISLAN CLOUDY    10   2  68 E5        30.11R WCI   2
NEWBERRY       CLOUDY     9   5  84 E7        30.08R WCI  -2
S. S. MARIE    CLOUDY     5  -9  52 E5        30.10F WCI  -4
MUNISING         N/A     19  13  77 E7        30.07R WCI  10
$$
MIZ004>006-011>014-085-162100-
CENTRAL UPPER MICHIGAN

CITY           SKY/WX    TMP DP  RH WIND       PRES   REMARKS
MANISTIQUE     CLOUDY    15   4  62 E6        30.07R WCI   7
ESCANABA       FLURRIES  19  11  70 E9        30.06R WCI   8
MENOMINEE      FLURRIES  24  20  84 NE9       30.03R WCI  14
SAWYER-GWINN   SUNNY     16   9  73 NW3       30.01R
$$
MIZ001>003-009>011-084-162100-
WESTERN UPPER MICHIGAN

CITY           SKY/WX    TMP DP  RH WIND       PRES   REMARKS
IRON MOUNTAIN  CLOUDY    20  10  65 E5        29.99R WCI  13
HOUGHTON       FLURRIES  19  11  70 E8        30.02R WCI   9
COPPER HARBOR    N/A     20  14  77 SE6       30.06R WCI  12
IRONWOOD       CLOUDY    20  12  71 E5        29.98R WCI  13
$$

ABBREVIATIONS USED IN REMARKS
   TC - TEMPERATURE IN CELSIUS
  WCI - WIND CHILL INDEX
   HX - HEAT INDEX
  VSB - VISIBILITY





USA.gov is the U.S. government's official web portal to all federal, state and local government web resources and services.